Flight Track Log - Related Links

Times and Time Zones

All times are in EDT time to prevent confusion due to time zone crossing. See the USC105 flight status page for this flight to view local times or setup timezone preferences in your user account.

Time Position Orientation Groundspeed Altitude Reporting Facility
EDT Latitude Longitude Course Direction KTS MPH feet Rate Location/Type
Thu 07:19:14 42.2469 -83.5425 299° West 124 143 1,800  Level Cleveland Center
Thu 07:19:44 42.2544 -83.5622 297° West 137 158 2,400 1,320 Climbing FAA TRACON SMA TRACON (SMA)
Thu 07:20:04 42.2600 -83.5808 292° West 138 159 2,900 1,050 Climbing FAA TRACON SMA TRACON (SMA)
Thu 07:20:24 42.2600 -83.5967 270° West 142 163 3,100 900 Climbing FAA TRACON SMA TRACON (SMA)
Thu 07:20:44 42.2533 -83.6097 235° Southwest 138 159 3,500 1,385 Climbing FAA TRACON SMA TRACON (SMA)
Thu 07:21:03 42.2478 -83.6211 237° Southwest 125 144 4,000 900 Climbing FAA TRACON SMA TRACON (SMA)
Thu 07:21:24 42.2392 -83.6392 237° Southwest 139 160 4,100 150 Climbing FAA TRACON SMA TRACON (SMA)
Thu 07:21:43 42.2308 -83.6542 233° Southwest 159 183 4,100  Level FAA TRACON SMA TRACON (SMA)
Thu 07:22:03 42.2194 -83.6644 214° Southwest 157 181 4,100  Level FAA TRACON SMA TRACON (SMA)
Thu 07:22:24 42.2058 -83.6747 209° Southwest 162 186 4,100  Level FAA TRACON SMA TRACON (SMA)
Thu 07:22:43 42.1922 -83.6853 210° Southwest 165 190 4,100  Level FAA TRACON SMA TRACON (SMA)
Thu 07:23:04 42.1764 -83.6958 206° Southwest 165 190 4,100  Level FAA TRACON SMA TRACON (SMA)
Thu 07:23:24 42.1639 -83.7039 206° Southwest 165 190 4,100  Level FAA TRACON SMA TRACON (SMA)
Thu 07:23:43 42.1508 -83.7131 207° Southwest 166 191 4,100  Level FAA TRACON SMA TRACON (SMA)
Thu 07:24:04 42.1344 -83.7231 204° Southwest 167 192 4,100 -150 Level FAA TRACON SMA TRACON (SMA)
Thu 07:24:23 42.1231 -83.7294 203° Southwest 165 190 4,000 -150 Descending FAA TRACON SMA TRACON (SMA)
Thu 07:24:44 42.1092 -83.7389 207° Southwest 163 188 4,000  Level FAA TRACON SMA TRACON (SMA)
Thu 07:25:03 42.0967 -83.7469 206° Southwest 162 186 4,000  Level FAA TRACON SMA TRACON (SMA)
Thu 07:25:23 42.0814 -83.7564 205° Southwest 158 182 4,000  Level FAA TRACON SMA TRACON (SMA)
Thu 07:25:44 42.0697 -83.7642 206° Southwest 155 178 4,000  Level FAA TRACON SMA TRACON (SMA)
Thu 07:26:03 42.0567 -83.7725 205° Southwest 153 176 4,000  Level FAA TRACON SMA TRACON (SMA)
Thu 07:26:24 42.0428 -83.7747 187° South 141 162 4,000  Level FAA TRACON SMA TRACON (SMA)
Thu 07:26:43 42.0303 -83.7758 184° South 151 174 4,000  Level FAA TRACON SMA TRACON (SMA)
Thu 07:27:07 42.0133 -83.7761 181° South 157 181 4,000 136 Level FAA TRACON SMA TRACON (SMA)
Thu 07:27:27 41.9967 -83.7767 181° South 156 180 4,100 162 Climbing FAA TRACON SMA TRACON (SMA)
Thu 07:27:44 41.9864 -83.7769 181° South 157 181 4,100  Level FAA TRACON SMA TRACON (SMA)
Thu 07:28:03 41.9728 -83.7775 182° South 157 181 4,100 -150 Level FAA TRACON SMA TRACON (SMA)
Thu 07:28:24 41.9558 -83.7778 181° South 159 183 4,000  Descending FAA TRACON SMA TRACON (SMA)
Thu 07:28:44 41.9419 -83.7775 179° South 160 184 4,100  Climbing FAA TRACON SMA TRACON (SMA)
Thu 07:29:03 41.9286 -83.7778 181° South 159 183 4,000 -150 Descending FAA TRACON SMA TRACON (SMA)
Thu 07:29:24 41.9111 -83.7772 179° South 160 184 4,000 146 Level FAA TRACON SMA TRACON (SMA)
Thu 07:29:44 41.8972 -83.7767 178° South 161 185 4,100  Climbing FAA TRACON SMA TRACON (SMA)
Thu 07:30:03 41.8836 -83.7767 180° South 161 185 4,000 -150 Descending FAA TRACON SMA TRACON (SMA)
Thu 07:30:24 41.8656 -83.7756 177° South 165 190 4,000 150 Level FAA TRACON SMA TRACON (SMA)
Thu 07:30:43 41.8514 -83.7750 178° South 166 191 4,100  Climbing FAA TRACON SMA TRACON (SMA)
Thu 07:31:03 41.8369 -83.7739 177° South 167 192 4,000  Descending FAA TRACON SMA TRACON (SMA)
Thu 07:31:24 41.8186 -83.7717 175° South 169 194 4,100  Climbing FAA TRACON SMA TRACON (SMA)
Thu 07:31:44 41.8042 -83.7697 174° South 169 194 4,000 -154 Descending FAA TRACON SMA TRACON (SMA)
Thu 07:32:03 41.7897 -83.7672 173° South 170 196 4,000  Level FAA TRACON SMA TRACON (SMA)
Thu 07:32:24 41.7717 -83.7647 174° South 170 196 4,000  Level FAA TRACON SMA TRACON (SMA)
Thu 07:32:44 41.7572 -83.7625 173° South 169 194 4,000  Level FAA TRACON SMA TRACON (SMA)
Thu 07:33:03 41.7431 -83.7603 173° South 169 194 4,000  Level FAA TRACON SMA TRACON (SMA)
Thu 07:33:24 41.7247 -83.7569 172° South 170 196 4,000  Level FAA TRACON SMA TRACON (SMA)
Thu 07:33:44 41.7103 -83.7544 173° South 170 196 4,000 154 Level FAA TRACON SMA TRACON (SMA)
Thu 07:34:03 41.6961 -83.7514 171° South 169 194 4,100 300 Climbing FAA TRACON SMA TRACON (SMA)
Thu 07:34:24 41.6792 -83.7417 157° South 177 204 4,200 300 Climbing FAA TRACON SMA TRACON (SMA)
Thu 07:34:43 41.6650 -83.7333 156° South 173 199 4,300 300 Climbing FAA TRACON SMA TRACON (SMA)
Thu 07:35:04 41.6475 -83.7247 160° South 184 212 4,400 293 Climbing FAA TRACON SMA TRACON (SMA)
Thu 07:35:24 41.6342 -83.7189 162° South 171 197 4,500 462 Climbing FAA TRACON SMA TRACON (SMA)
Thu 07:35:43 41.6200 -83.7114 158° South 174 200 4,700 600 Climbing FAA TRACON SMA TRACON (SMA)
Thu 07:36:04 41.6031 -83.7039 162° South 169 194 4,900 600 Climbing FAA TRACON SMA TRACON (SMA)
Thu 07:36:23 41.5897 -83.6967 158° South 168 193 5,100 450 Climbing FAA TRACON SMA TRACON (SMA)
Thu 07:36:44 41.5764 -83.6894 158° South 167 192 5,200 293 Climbing FAA TRACON SMA TRACON (SMA)
Thu 07:37:04 41.5597 -83.6803 158° South 169 194 5,300 462 Climbing FAA TRACON SMA TRACON (SMA)
Thu 07:37:23 41.5461 -83.6744 162° South 164 189 5,500 600 Climbing FAA TRACON SMA TRACON (SMA)
Thu 07:37:44 41.5328 -83.6683 161° South 166 191 5,700 750 Climbing FAA TRACON SMA TRACON (SMA)
Thu 07:38:03 41.5161 -83.6603 160° South 166 191 6,000 750 Climbing FAA TRACON SMA TRACON (SMA)
Thu 07:38:24 41.5028 -83.6525 156° South 167 192 6,200 450 Climbing FAA TRACON SMA TRACON (SMA)
Thu 07:38:43 41.4894 -83.6458 159° South 166 191 6,300 450 Climbing FAA TRACON SMA TRACON (SMA)
Thu 07:39:04 41.4728 -83.6381 161° South 165 190 6,500 585 Climbing FAA TRACON SMA TRACON (SMA)
Thu 07:39:24 41.4608 -83.6308 156° South 169 194 6,700 615 Climbing FAA TRACON SMA TRACON (SMA)
Thu 07:39:43 41.4439 -83.6214 157° South 171 197 6,900 600 Climbing FAA TRACON SMA TRACON (SMA)
Thu 07:40:04 41.4300 -83.6150 161° South 171 197 7,100 150 Climbing FAA TRACON SMA TRACON (SMA)
Thu 07:40:23 41.4156 -83.6103 166° South 174 200 7,000 -150 Descending FAA TRACON SMA TRACON (SMA)
Thu 07:40:44 41.3961 -83.6033 165° South 187 215 7,000 146 Level FAA TRACON SMA TRACON (SMA)
Thu 07:41:04 41.3806 -83.5981 166° South 184 212 7,100 154 Climbing FAA TRACON SMA TRACON (SMA)
Thu 07:41:23 41.3653 -83.5931 166° South 184 212 7,100 -150 Level FAA TRACON SMA TRACON (SMA)
Thu 07:41:44 41.3536 -83.5892 166° South 185 213 7,000 -150 Descending FAA TRACON SMA TRACON (SMA)
Thu 07:42:03 41.3536 -83.5892 66° East 185 213 7,000 -48 Level FAA TRACON SMA TRACON (SMA)
Thu 07:43:49 41.2456 -83.5458 163° South 184 212 6,900 -36 Descending Indianapolis Center
Thu 07:44:50 41.1961 -83.5281 165° South 183 211 6,900  Level Indianapolis Center
Thu 07:45:51 41.1464 -83.5042 160° South 187 215 6,900  Level Indianapolis Center
Thu 07:46:53 41.0967 -83.4781 158° South 189 217 6,900  Level Indianapolis Center
Thu 07:47:54 41.0464 -83.4539 160° South 191 220 6,900  Level Indianapolis Center
Thu 07:48:56 40.9947 -83.4278 159° South 195 224 6,900  Level Indianapolis Center
Thu 07:49:57 40.9428 -83.4042 161° South 196 226 6,900  Level Indianapolis Center
Thu 07:50:59 40.8894 -83.3831 163° South 197 227 6,900 49 Level Indianapolis Center
Thu 07:52:00 40.8358 -83.3614 163° South 200 230 7,000  Climbing Indianapolis Center
Thu 07:53:01 40.7767 -83.3389 164° South 199 229 6,900 -49 Descending Indianapolis Center
Thu 07:54:03 40.7258 -83.3189 163° South 192 221 6,900  Level Indianapolis Center
Thu 07:55:04 40.6761 -83.2994 163° South 186 214 6,900  Level Indianapolis Center
Thu 07:56:06 40.6242 -83.2769 162° South 191 220 6,900  Level Indianapolis Center
Thu 07:57:07 40.5728 -83.2569 164° South 192 221 6,900 49 Level Indianapolis Center
Thu 07:58:09 40.5203 -83.2358 163° South 194 223 7,000 43 Climbing Indianapolis Center
Thu 07:59:27 40.4508 -83.1808 149° Southeast 206 237 7,000 -49 Level Indianapolis Center
Thu 08:00:12 40.4253 -83.1503 138° Southeast 210 242 6,900  Descending Indianapolis Center
Thu 08:00:28 40.4061 -83.1317 144° Southeast 211 243 7,000  Climbing Indianapolis Center
Thu 08:01:13 40.3717 -83.0944 141° Southeast 209 241 6,900 -90 Descending Indianapolis Center
Thu 08:01:35 40.3531 -83.0789 148° Southeast 211 243 6,900 97 Level Indianapolis Center
Thu 08:02:15 40.3253 -83.0500 142° Southeast 205 236 7,000  Climbing Indianapolis Center
Thu 08:03:16 40.2792 -83.0081 145° Southeast 199 229 6,900 -98 Descending Indianapolis Center
Thu 08:04:17 40.2344 -82.9678 145° Southeast 195 224 6,800 -341 Descending Indianapolis Center
Thu 08:05:19 40.1864 -82.9244 145° Southeast 204 235 6,200 -683 Descending Indianapolis Center
Thu 08:06:20 40.1381 -82.8814 146° Southeast 209 241 5,400 -835 Descending Indianapolis Center
Thu 08:06:38 40.1197 -82.8772 170° South 207 238 5,100 -774 Descending Indianapolis Center
Thu 08:07:22 40.0817 -82.8700 172° South 206 237 4,600 -686 Descending Indianapolis Center
Thu 08:08:23 40.0261 -82.8708 181° South 201 231 3,900 -341 Descending Indianapolis Center
Thu 08:09:25 39.9783 -82.8692 178° South 186 214 3,900 -390 Level Indianapolis Center
Thu 08:10:26 39.9331 -82.8742 185° South 169 194 3,100 -836 Descending Indianapolis Center
Thu 08:11:27 39.8842 -82.8833 188° South 171 197 2,200 -1,007 Descending Indianapolis Center
Thu 08:12:43 39.8267 -82.9119 201° Southwest 152 175 800 -488 Descending Indianapolis Center
Thu 08:13:30 39.8006 -82.9192 192° South 168 193 1,200 511 Climbing Indianapolis Center
Thu 08:15:00 39.8000 -82.9167 180° South  Level FlightAware Approximate

Login

Don't have an account? Register now (free) for customized features, flight alerts, and more!